"TOA5","AWS1","CR1000","7964","CR1000.Std.14","CPU:AWS1_114.CR1","64363","TBL110"
"TIMESTAMP","RECORD","Wind_spd_WVc(1)","Wind_spd_WVc(2)","Air_Temp_Avg","Humidity_Avg","SW_upper_Wm2_Avg","Rain_Tot","Press_Avg","Issui_Tot","Depth_cm","SR50A_Raw","Quality","Ground_Temp_Avg(1)","Ground_Temp_Avg(2)","SW_lower_Wm2_Avg","Albedo_Avg","SWC_per(1)","SWC_per(2)","Period(1)","Period(2)"
"TS","RN","","","","","","","","","","","","","","","","","","",""
"","","WVc","WVc","Avg","Avg","Avg","Tot","Avg","Tot","Smp","Smp","Smp","Avg","Avg","Avg","Avg","Smp","Smp","Smp","Smp"
"2017-08-16 00:00:00",301453,0.006,0.194,17.84,100,0,0,860.2993,0,0.183,3.079,204,21.47,21.26,0.2273512,0,48.54,55.49,32.93,34.63
"2017-08-16 00:10:00",301454,0,0,17.82,100,0,0,860.2403,0,0.329,3.078,212,21.48,21.27,0.2273534,0,48.54,55.49,32.93,34.63
"2017-08-16 00:20:00",301455,0,0,17.8,100,0,0,860.2403,0,0.535,3.076,208,21.48,21.3,0.2690391,0,48.54,55.49,32.93,34.63
"2017-08-16 00:30:00",301456,0.012,236.3,17.83,100,0,0,860.2403,0,0.636,3.075,208,21.44,21.31,0.3069339,0,48.54,55.49,32.93,34.63
"2017-08-16 00:40:00",301457,0,0,17.81,100,0,0,860.2403,0,0.949,3.072,208,21.38,21.33,0.2463071,0,48.54,55.49,32.93,34.63
"2017-08-16 00:50:00",301458,0,0,17.81,100,0,0,860.2403,0,0.976,3.072,211,21.34,21.33,0.2387206,0,48.54,55.49,32.93,34.63
"2017-08-16 01:00:00",301459,0,0,17.79,100,0,0,860.2403,0,11.91,2.966,275,21.34,21.33,0.2311392,0,48.54,55.49,32.93,34.63
"2017-08-16 01:10:00",301460,0,0,17.85,100,0,0,860.2403,0,-30.5,3.377,209,21.34,21.33,0.2803969,0,48.54,55.49,32.93,34.63
"2017-08-16 01:20:00",301461,0,0,17.83,100,0,0,860.2403,0,-32.33,3.394,231,21.33,21.3,0.3826949,0,48.54,55.49,32.93,34.63
"2017-08-16 01:30:00",301462,0,0,17.81,100,0,0,860.2403,0,1.839,3.063,206,21.36,21.29,0.2803904,0,48.54,55.49,32.93,34.63
"2017-08-16 01:40:00",301463,0,0,17.83,100,0,0,860.2529,0,2.334,3.058,221,21.37,21.28,0.314491,0,48.54,55.49,32.93,34.63
"2017-08-16 01:50:00",301464,0,0,17.77,100,0,0.5,860.2488,0,2.864,3.054,266,21.33,21.26,0.227339,0,48.59,55.49,32.95,34.63
"2017-08-16 02:00:00",301465,0,0,17.77,100,0,0,860.4045,0,-0.288,3.084,204,21.33,21.25,0.3599642,0,48.54,55.55,32.93,34.64
"2017-08-16 02:10:00",301466,0,0,17.79,100,0,0,860.4467,0,1.672,3.065,232,21.34,21.26,0.2311433,0,48.54,55.49,32.93,34.63
"2017-08-16 02:20:00",301467,0.068,105.4,17.8,100,0,0,860.3688,0,0.845,3.073,219,21.31,21.27,0.2652476,0,48.59,55.49,32.95,34.63
"2017-08-16 02:30:00",301468,0.45,59.75,17.79,100,0,0.5,860.2466,0,0.945,3.072,235,21.28,21.26,0.3258794,0,48.59,55.49,32.95,34.63
"2017-08-16 02:40:00",301469,0.492,148.9,17.8,100,0,0,860.2403,0,1.982,3.062,254,21.27,21.25,0.329671,0,48.59,55.49,32.95,34.63
"2017-08-16 02:50:00",301470,0.18,335.3,17.79,100,0,0,860.2466,0,2.161,3.06,262,21.26,21.21,0.4547115,0,48.54,55.55,32.93,34.64
"2017-08-16 03:00:00",301471,0.019,208.6,17.82,100,0,0.5,860.3266,0,-37.97,3.449,301,21.27,21.23,0.2614679,0,48.59,55.55,32.95,34.64
"2017-08-16 03:10:00",301472,0,0,17.82,100,0,0.5,860.4741,0,-0.836,3.089,240,21.29,21.19,0.2311556,0,48.59,55.49,32.95,34.63
"2017-08-16 03:20:00",301473,0.153,129.1,17.79,100,0,0.5,860.3372,0,2.416,3.058,294,21.31,21.2,0.2273603,0,48.59,55.55,32.95,34.64
"2017-08-16 03:30:00",301474,0.094,137.3,17.79,100,0,0,860.2823,0,3.657,3.046,362,21.3,21.21,0.2197756,0,48.59,55.49,32.95,34.63
"2017-08-16 03:40:00",301475,0.436,132.3,17.78,100,0,0,860.2531,0,3.677,3.046,366,21.27,21.22,0.2235684,0,48.65,55.55,32.96,34.64
"2017-08-16 03:50:00",301476,0.297,145.9,17.76,100,0,0,860.3567,0,2.907,3.053,262,21.27,21.22,0.2387263,0,48.65,55.55,32.96,34.64
"2017-08-16 04:00:00",301477,0.407,69.14,17.8,100,0,0,860.3899,0,-35.75,3.428,282,21.23,21.23,0.3713597,0,48.65,55.55,32.96,34.64
"2017-08-16 04:10:00",301478,0.458,81.3,17.82,100,0,0,860.2403,0,318,0,0,21.19,21.25,0.647989,0,48.7,55.55,32.97,34.64
"2017-08-16 04:20:00",301479,0.104,197,17.89,100,0,0,860.2403,0,318,0,0,21.19,21.25,0.3978928,0,48.75,55.55,32.99,34.64
"2017-08-16 04:30:00",301480,0.092,340.5,17.88,100,0,0,860.4067,0,318,0,0,21.22,21.26,0.3903163,0,48.75,55.55,32.99,34.64
"2017-08-16 04:40:00",301481,0,0,17.87,100,0,0.5,860.493,0,3.289,3.049,353,21.23,21.27,0.2538957,0,48.81,55.55,33,34.64
"2017-08-16 04:50:00",301482,0,0,17.89,100,0,0.5,860.493,0,-31.62,3.387,289,21.26,21.27,0.2463167,0,48.86,55.55,33.01,34.64
"2017-08-16 05:00:00",301483,0,0,17.92,100,0,0,860.5014,0,-33.22,3.402,267,21.24,21.27,0.2955801,0,48.86,55.6,33.01,34.65
"2017-08-16 05:10:00",301484,0,0,18,100,0.3222776,0.5,860.5961,0,-30.8,3.378,218,21.19,21.25,0.4509472,1.229,48.92,55.6,33.03,34.65
"2017-08-16 05:20:00",301485,0,0,17.99,100,0.9432543,0,860.7457,0,-29.66,3.367,205,21.19,21.24,0.3600012,0.416,48.97,55.6,33.04,34.65
"2017-08-16 05:30:00",301486,0,0,17.93,100,1.300888,0.5,860.7457,0,-30.41,3.376,241,21.15,21.22,0.3524171,0.284,49.08,55.6,33.07,34.65
"2017-08-16 05:40:00",301487,0.041,112.3,17.81,100,2.680268,0.5,860.7462,0,-30.53,3.377,223,21.09,21.18,0.4774499,0.206,49.19,55.6,33.09,34.65
"2017-08-16 05:50:00",301488,0.006,112.2,17.81,100,10.56772,0.5,860.7449,0,-30.11,3.373,202,21.08,21.17,1.379288,0.131,49.3,55.66,33.12,34.67
"2017-08-16 06:00:00",301489,0,0,17.87,100,8.814881,0.5,860.7465,0,-0.956,3.09,198,21.09,21.17,1.034457,0.117,49.51,55.66,33.18,34.67
"2017-08-16 06:10:00",301490,0,0,18.05,100,7.938693,0,860.7458,0,-0.793,3.087,199,21.11,21.17,1.072376,0.135,49.73,55.72,33.23,34.68
"2017-08-16 06:20:00",301491,0,0,18.24,100,14.02267,0,860.9289,0,-1.462,3.093,198,21.07,21.17,1.860587,0.137,49.9,55.72,33.27,34.68
"2017-08-16 06:30:00",301492,0,0,18.33,100,42.46543,0,860.9963,0,-1.719,3.095,198,21.06,21.17,5.108147,0.12,50.01,55.77,33.3,34.7
"2017-08-16 06:40:00",301493,0,0,18.4,100,68.6408,0,861.0363,0,-1.192,3.089,206,21.09,21.17,8.416374,0.121,50.06,55.83,33.31,34.71
"2017-08-16 06:50:00",301494,0,0,18.51,100,118.2615,0,861.032,0,-2.01,3.096,197,21.09,21.17,14.86578,0.126,50.06,55.95,33.31,34.74
"2017-08-16 07:00:00",301495,0,0,18.85,100,123.4463,0,861.0447,0,3.288,3.043,329,21.05,21.14,15.11553,0.122,50.11,55.95,33.33,34.74
"2017-08-16 07:10:00",301496,0,0,19.07,100,118.3555,0,861.2489,0,0.765,3.067,233,20.99,21.09,15.01632,0.126,50.06,56.06,33.31,34.76
"2017-08-16 07:20:00",301497,0,0,19.52,100,240.6654,0,861.251,0,-33.01,3.39,258,20.98,21.11,30.76736,0.128,50.11,56.18,33.33,34.79
"2017-08-16 07:30:00",301498,0.068,345.2,19.61,100,149.6935,0,861.2405,0,-30.68,3.368,328,20.95,21.1,17.99047,0.12,50.06,56.23,33.31,34.8
"2017-08-16 07:40:00",301499,0,0,19.58,100,156.3111,0,861.2342,0,12.19,2.954,406,20.94,21.06,20.63849,0.13,50.06,56.29,33.31,34.82
"2017-08-16 07:50:00",301500,0.324,1.734,19.73,99.9,166.7997,0,861.2805,0,-38.1,3.439,336,20.93,21.06,22.1195,0.126,50.06,56.35,33.31,34.83
"2017-08-16 08:00:00",301501,0.047,25.36,19.66,100,96.82687,0,861.411,0,-28.75,3.35,197,20.94,21.05,11.29816,0.116,50.06,56.41,33.31,34.84
"2017-08-16 08:10:00",301502,0.022,22.5,19.52,100,157.3679,0,861.5037,0,-29.06,3.352,195,20.92,21.04,19.89812,0.126,50.06,56.46,33.31,34.86
"2017-08-16 08:20:00",301503,0.086,13.37,19.58,100,165.4768,0,861.5037,0,-36.67,3.427,230,20.91,21.04,20.87163,0.126,50.01,56.46,33.3,34.86
"2017-08-16 08:30:00",301504,0.232,3.33,19.12,100,120.7507,0,861.5037,0,6.446,3.012,336,20.91,21.04,16.03376,0.133,50.06,56.52,33.31,34.87
"2017-08-16 08:40:00",301505,0.168,9.87,19.1,100,182.8009,0,861.5037,0,2.462,3.049,426,20.9,21.03,24.83019,0.136,50.01,56.58,33.3,34.88
"2017-08-16 08:50:00",301506,0.192,15.31,19.22,100,148.2551,0,861.5037,0,0.765,3.067,349,20.92,21.02,19.16581,0.129,50.01,56.64,33.3,34.9
"2017-08-16 09:00:00",301507,0.198,20.46,19.12,100,292.1285,0,861.5037,0,4.44,3.029,396,20.95,21.02,37.0624,0.127,50.01,56.58,33.3,34.88
"2017-08-16 09:10:00",301508,0.086,87,19.64,100,403.703,0,861.5099,0,4.565,3.026,353,21.01,21.02,52.81457,0.131,50.01,56.64,33.3,34.9
"2017-08-16 09:20:00",301509,0.091,334.2,20.03,100,300.3232,0,861.5773,0,-33.55,3.393,214,21.02,21.02,39.55827,0.132,50.01,56.64,33.3,34.9
"2017-08-16 09:30:00",301510,0.045,322.6,20.16,100,336.0081,0,861.7037,0,6.665,3.004,416,21,21.01,43.01241,0.128,50.01,56.7,33.3,34.91
"2017-08-16 09:40:00",301511,0.185,124.6,20.35,98.8,690.472,0,861.6679,0,8.12,2.988,334,20.96,21.01,84.91782,0.123,49.95,56.7,33.28,34.91
"2017-08-16 09:50:00",301512,0.219,195.7,20.84,93.6,454.8862,0,861.6363,0,-31.86,3.373,200,21.06,21,57.08904,0.127,50.01,56.7,33.3,34.91
"2017-08-16 10:00:00",301513,0.245,310.6,20.65,96.1,441.1657,0,861.7563,0,8.31,2.985,268,21.05,21.01,59.31646,0.134,49.95,56.75,33.28,34.93
"2017-08-16 10:10:00",301514,0.129,294,20.4,96.1,133.7767,0,861.7563,0,-1.332,3.083,208,21.06,20.95,15.30833,0.112,49.95,56.75,33.28,34.93
"2017-08-16 10:20:00",301515,0.088,309.3,19.98,100,147.8777,0,861.6637,0,-1.054,3.081,268,21.06,20.87,18.91853,0.128,49.95,56.75,33.28,34.93
"2017-08-16 10:30:00",301516,0.145,26.34,19.91,99.8,348.1989,0,861.5099,0,-0.221,3.07,214,21.04,20.88,48.46311,0.139,49.95,56.81,33.28,34.94
"2017-08-16 10:40:00",301517,0.148,104.7,20.44,95.9,345.8023,0,861.5037,0,-0.556,3.073,251,21.11,20.85,47.64106,0.137,49.9,56.81,33.27,34.94
"2017-08-16 10:50:00",301518,0.066,348.7,20.59,95.7,377.1749,0,861.4763,0,-1.56,3.082,226,21.14,20.84,51.98618,0.138,49.95,56.75,33.28,34.93
"2017-08-16 11:00:00",301519,0.248,20.98,20.56,90.5,483.8851,0,861.2952,0,1.339,3.052,225,21.1,20.84,65.94968,0.135,49.9,56.81,33.27,34.94
"2017-08-16 11:10:00",301520,0.183,359.7,21.25,87.5,689.4044,0,861.2573,0,0.238,3.059,228,21.17,20.84,94.79722,0.137,49.9,56.81,33.27,34.94
"2017-08-16 11:20:00",301521,0.092,206.9,21.69,84.2,488.4231,0,861.251,0,-1.311,3.073,229,21.2,20.84,64.79805,0.131,49.9,56.75,33.27,34.93
"2017-08-16 11:30:00",301522,0.248,159.6,21.56,85.8,324.9042,0,861.251,0,1.406,3.05,237,21.22,20.84,41.68971,0.128,49.84,56.81,33.26,34.94
"2017-08-16 11:40:00",301523,0.035,337.4,21.13,90.6,261.0078,0,861.2468,0,-2.075,3.084,221,21.29,20.84,33.31768,0.127,49.84,56.81,33.26,34.94
"2017-08-16 11:50:00",301524,0.068,202,21.07,89.6,182.2363,0,861.2363,0,-0.415,3.068,224,21.33,20.86,23.23714,0.127,49.9,56.81,33.27,34.94
"2017-08-16 12:00:00",301525,0.081,151.6,21.17,90.8,328.8057,0,861.0657,0,-0.994,3.072,204,21.28,20.87,45.42493,0.137,49.84,56.81,33.26,34.94
"2017-08-16 12:10:00",301526,0.077,326.3,21.36,89.4,173.4198,0,861.0068,0,-0.542,3.069,279,21.39,20.86,21.64228,0.124,49.84,56.81,33.26,34.94
"2017-08-16 12:20:00",301527,0.102,218.2,21.02,92.6,154.2033,0,860.9984,0,-1.174,3.076,270,21.4,20.88,19.37312,0.125,49.84,56.81,33.26,34.94
"2017-08-16 12:30:00",301528,0.248,313.1,20.7,94.4,154.7926,0,860.9984,0,-38.81,3.441,224,21.42,20.88,20.6043,0.131,49.84,56.81,33.26,34.94
"2017-08-16 12:40:00",301529,0.242,284.8,20.2,98.9,31.46708,0,860.9984,0,-28.71,3.347,232,21.5,20.89,3.663257,0.116,49.84,56.87,33.26,34.95
"2017-08-16 12:50:00",301530,0.323,344.6,19.85,100,62.60899,4,861.011,0,-32.15,3.382,205,21.54,20.93,7.379658,0.119,49.84,56.81,33.26,34.94
"2017-08-16 13:00:00",301531,0.175,227.2,19.58,100,80.16086,0.5,861.11,0,11.87,2.957,280,21.53,20.9,10.20966,0.127,50.39,56.87,33.39,34.95
"2017-08-16 13:10:00",301532,0.103,162.7,19.77,100,144.172,0,861.1837,0,9.08,2.983,396,21.52,20.92,18.65427,0.129,50.66,56.87,33.46,34.95
"2017-08-16 13:20:00",301533,0.259,331.1,19.74,100,144.4263,0,861.251,0,10.97,2.966,267,21.64,20.95,18.45437,0.127,50.83,57.04,33.5,34.99
"2017-08-16 13:30:00",301534,0.192,295.4,19.73,100,223.6945,0,861.2405,0,11.02,2.964,261,21.65,20.96,28.61238,0.128,50.83,57.16,33.5,35.02
"2017-08-16 13:40:00",301535,0.114,282.5,19.97,100,235.2694,0,861.2447,0,11.82,2.955,243,21.61,20.96,29.97668,0.127,50.83,57.27,33.5,35.05
"2017-08-16 13:50:00",301536,0.177,308.1,20.12,100,177.2695,0,861.2447,0,12.07,2.953,242,21.64,20.94,21.49732,0.121,50.83,57.39,33.5,35.07
"2017-08-16 14:00:00",301537,0.155,293.3,19.82,100,111.8225,0,861.2426,0,11.81,2.957,240,21.66,20.94,13.44602,0.12,50.77,57.45,33.49,35.09
"2017-08-16 14:10:00",301538,0.136,285.3,19.73,100,109.751,0,861.0678,0,-29.5,3.356,258,21.72,20.95,12.98418,0.118,50.77,57.51,33.49,35.1
"2017-08-16 14:20:00",301539,0.029,277.7,19.85,100,103.4643,0,861.0405,0,11.62,2.958,272,21.75,20.94,12.30605,0.119,50.72,57.56,33.47,35.12
"2017-08-16 14:30:00",301540,0.005,346.5,19.8,100,183.0183,0,861.2236,0,11.82,2.956,280,21.75,20.93,23.47176,0.128,50.66,57.62,33.46,35.13
"2017-08-16 14:40:00",301541,0.097,335.7,19.88,100,225.4315,0,861.2257,0,11.83,2.957,219,21.75,20.93,28.12465,0.125,50.72,57.68,33.47,35.14
"2017-08-16 14:50:00",301542,0.22,11.69,19.73,100,182.3307,0,861.1942,0,12.3,2.952,232,21.74,20.94,22.71021,0.124,50.66,57.68,33.46,35.14
"2017-08-16 15:00:00",301543,0.103,297.4,19.77,100,116.6451,0,861.211,0,-27.67,3.338,211,21.7,20.95,13.52238,0.116,50.66,57.74,33.46,35.16
"2017-08-16 15:10:00",301544,0.243,325.2,19.65,100,105.9785,0.5,861.251,0,4.254,3.03,258,21.74,20.98,12.63558,0.119,50.66,57.8,33.46,35.17
"2017-08-16 15:20:00",301545,0.171,327.6,19.64,100,137.4646,0,861.251,0,3.61,3.036,244,21.8,20.99,16.39395,0.119,50.61,57.74,33.45,35.16
"2017-08-16 15:30:00",301546,0.281,331.7,19.68,100,122.6703,0,861.251,0,3.851,3.035,234,21.83,20.99,14.64356,0.119,50.61,57.8,33.45,35.17
"2017-08-16 15:40:00",301547,0.076,308.7,19.58,100,65.59983,0,861.251,0,4.263,3.031,256,21.84,21,7.888342,0.12,50.61,57.8,33.45,35.17
"2017-08-16 15:50:00",301548,0.181,14.91,19.49,100,40.78864,0,861.3521,0,3.588,3.038,238,21.84,21,4.967149,0.121,50.61,57.8,33.45,35.17
"2017-08-16 16:00:00",301549,0.087,324.8,19.45,100,62.6995,0,861.491,0,3.285,3.04,220,21.83,20.99,7.543519,0.12,50.61,57.86,33.45,35.18
"2017-08-16 16:10:00",301550,0.315,29.22,19.4,100,55.07422,0,861.5037,0,3.673,3.038,460,21.84,21,6.683694,0.122,50.55,57.86,33.43,35.18
"2017-08-16 16:20:00",301551,0.091,336.6,19.28,100,59.24832,0.5,861.5037,0,11.33,2.964,482,21.85,21.01,7.263501,0.123,50.61,57.86,33.45,35.18
"2017-08-16 16:30:00",301552,0.056,349.7,19.26,100,52.43012,0.5,861.5037,0,4.813,3.027,249,21.85,21.04,6.323813,0.121,50.55,57.91,33.43,35.2
"2017-08-16 16:40:00",301553,0.013,304.9,19.32,100,37.00193,1,861.512,0,3.213,3.042,284,21.85,21.04,4.853664,0.132,50.72,57.91,33.47,35.2
"2017-08-16 16:50:00",301554,0.086,6.266,19.24,100,48.96039,0.5,861.6489,0,4.547,3.03,318,21.89,21.06,6.039664,0.123,50.94,57.97,33.53,35.21
"2017-08-16 17:00:00",301555,0.115,301.7,19.16,100,34.01917,0.5,861.7268,0,-2.691,3.1,194,21.91,21.06,4.561896,0.135,51.16,58.09,33.58,35.24
"2017-08-16 17:10:00",301556,0.046,229.6,19.26,100,41.04586,0,861.6995,0,5.016,3.025,536,21.96,21.06,5.535717,0.135,51.21,58.21,33.6,35.26
"2017-08-16 17:20:00",301557,0,0,19.31,100,35.6712,0,861.75,0,-2.677,3.1,193,21.95,21.07,4.725029,0.133,51.21,58.32,33.6,35.29
"2017-08-16 17:30:00",301558,0.101,18.99,19.17,100,30.20145,0,861.7542,0,-2.863,3.102,202,21.96,21.08,3.827085,0.126,51.21,58.38,33.6,35.31
"2017-08-16 17:40:00",301559,0,0,19.17,100,38.59209,0,861.7563,0,1.437,3.06,273,21.97,21.08,5.126811,0.133,51.16,58.44,33.58,35.32
"2017-08-16 17:50:00",301560,0.011,14.15,19.2,100,43.31524,0,861.7563,0,-29.11,3.355,201,21.96,21.08,6.115706,0.141,51.1,58.5,33.57,35.33
"2017-08-16 18:00:00",301561,0,0,19.37,100,33.79294,0,861.7606,0,-27.99,3.343,427,21.95,21.12,4.584859,0.137,51.1,58.56,33.57,35.35
"2017-08-16 18:10:00",301562,0,0,19.28,100,24.62015,0,861.8679,0,-27.53,3.34,404,21.93,21.14,3.395005,0.138,51.1,58.56,33.57,35.35
"2017-08-16 18:20:00",301563,0.005,293.3,19.19,100,8.170271,0,862.009,0,1.332,3.061,242,21.93,21.16,1.235272,0.155,51.05,58.56,33.56,35.35
"2017-08-16 18:30:00",301564,0.078,0.845,19.11,100,3.026029,0,862.0574,0,-29.91,3.363,258,21.9,21.16,0.6024795,0.201,51.05,58.56,33.56,35.35
"2017-08-16 18:40:00",301565,0.079,15.45,18.95,100,2.039595,0,862.1669,0,-34.51,3.409,287,21.87,21.17,0.6820418,0.349,50.99,58.61,33.54,35.36
"2017-08-16 18:50:00",301566,0,0,18.93,100,0.8409643,0,862.2617,0,-29.54,3.361,264,21.85,21.17,0.6403428,0.975,50.94,58.61,33.53,35.36
"2017-08-16 19:00:00",301567,0.002,297.3,18.93,100,0.05108639,0,862.2617,0,8.1,2.997,368,21.85,21.2,0.4584699,0.418,50.94,58.56,33.53,35.35
"2017-08-16 19:10:00",301568,0.049,309,18.9,100,0,0,862.2659,0,5.27,3.025,270,21.86,21.23,0.4622713,0,50.94,58.61,33.53,35.36
"2017-08-16 19:20:00",301569,0.027,304.9,18.87,100,0,0,862.3038,0,6.075,3.017,273,21.85,21.22,0.3789062,0,50.88,58.56,33.52,35.35
"2017-08-16 19:30:00",301570,0.064,305.6,18.77,100,0,0,862.3164,0,5.193,3.026,267,21.85,21.21,0.2841781,0,50.88,58.56,33.52,35.35
"2017-08-16 19:40:00",301571,0,0,18.75,100,0,0,862.4701,0,5.044,3.027,284,21.85,21.21,0.4546787,0,50.88,58.56,33.52,35.35
"2017-08-16 19:50:00",301572,0,0,18.74,100,0,0,862.5143,0,4.984,3.028,325,21.88,21.2,0.4546878,0,50.88,58.56,33.52,35.35
"2017-08-16 20:00:00",301573,0,0,18.82,100,0,0,862.5901,0,4.762,3.029,473,21.91,21.2,0.5153188,0,50.83,58.5,33.5,35.33
"2017-08-16 20:10:00",301574,0,0,18.9,100,0,0,862.7606,0,5.967,3.018,434,21.87,21.2,0.5266922,0,50.77,58.5,33.49,35.33
"2017-08-16 20:20:00",301575,0.009,304.6,18.83,100,0,0,862.9775,0,5.655,3.021,360,21.86,21.21,0.4547106,0,50.83,58.5,33.5,35.33
"2017-08-16 20:30:00",301576,0,0,18.86,100,0,0,863.0133,0,5.548,3.022,367,21.84,21.2,0.4054528,0,50.77,58.5,33.49,35.33
"2017-08-16 20:40:00",301577,0,0,18.81,100,0,0,863.0196,0,-35.18,3.416,403,21.78,21.18,0.2804087,0,50.77,58.44,33.49,35.32
"2017-08-16 20:50:00",301578,0,0,18.77,100,0,0,863.0385,0,4.567,3.032,460,21.78,21.17,0.3069255,0,50.77,58.44,33.49,35.32
"2017-08-16 21:00:00",301579,0,0,18.8,100,0,0,863.0533,0,-1.268,3.088,266,21.77,21.16,0.2311382,0,50.72,58.44,33.47,35.32
"2017-08-16 21:10:00",301580,0,0,18.82,100,0,0,863.0765,0,0.207,3.074,450,21.77,21.16,0.2500789,0,50.72,58.44,33.47,35.32
"2017-08-16 21:20:00",301581,0,0,18.79,100,0,0,863.2239,0,-0.103,3.077,253,21.76,21.15,0.367536,0,50.77,58.44,33.49,35.32
"2017-08-16 21:30:00",301582,0,0,18.79,100,0,0,863.266,0,-3.228,3.107,244,21.75,21.16,0.2387099,0,50.72,58.44,33.47,35.32
"2017-08-16 21:40:00",301583,0,0,18.78,100,0,0,863.2133,0,-0.953,3.085,256,21.75,21.15,0.3372201,0,50.66,58.44,33.46,35.32
"2017-08-16 21:50:00",301584,0,0,18.78,100,0,0.5,863.2217,0,0.078,3.075,262,21.73,21.16,0.4433202,0,50.72,58.44,33.47,35.32
"2017-08-16 22:00:00",301585,0,0,18.82,100,0,0,863.1649,0,-31.01,3.375,206,21.68,21.16,0.2803909,0,50.66,58.38,33.46,35.31
"2017-08-16 22:10:00",301586,0,0,18.83,100,0,0,863.2344,0,4.548,3.032,321,21.68,21.16,0.2462881,0,50.66,58.38,33.46,35.31
"2017-08-16 22:20:00",301587,0,0,18.75,100,0,0,863.266,0,2.838,3.049,276,21.68,21.15,0.2273411,0,50.66,58.38,33.46,35.31
"2017-08-16 22:30:00",301588,0,0,18.7,100,0,0,863.266,0,11.85,2.962,470,21.68,21.16,0.227345,0,50.66,58.38,33.46,35.31
"2017-08-16 22:40:00",301589,0,0,18.66,100,0,0,863.2176,0,12.37,2.957,424,21.68,21.16,0.2273451,0,50.66,58.32,33.46,35.29
"2017-08-16 22:50:00",301590,0,0,18.71,100,0,0,863.0975,0,12.32,2.957,416,21.64,21.16,0.3826967,0,50.61,58.32,33.45,35.29
"2017-08-16 23:00:00",301591,0,0,18.76,100,0,0,863.0554,0,12.01,2.96,345,21.66,21.16,0.4357476,0,50.66,58.32,33.46,35.29
"2017-08-16 23:10:00",301592,0,0,18.71,100,0,0,863.0196,0,12.06,2.96,345,21.67,21.16,0.4546902,0,50.61,58.32,33.45,35.29
"2017-08-16 23:20:00",301593,0,0,18.66,100,0,0,863.0196,0,11.9,2.962,316,21.66,21.16,0.4660561,0,50.61,58.32,33.45,35.29
"2017-08-16 23:30:00",301594,0,0,18.65,100,0,0,863.0196,0,13.2,2.949,385,21.6,21.16,0.5456302,0,50.61,58.26,33.45,35.28
"2017-08-16 23:40:00",301595,0,0,18.65,100,0,0,863.0196,0,12.27,2.958,282,21.59,21.15,0.462258,0,50.61,58.26,33.45,35.28
"2017-08-16 23:50:00",301596,0,0,18.66,100,0,0,863.0196,0,12.21,2.959,322,21.58,21.15,0.4660393,0,50.55,58.26,33.43,35.28
